******************************************************************************* JPL/HORIZONS Nishimura (C/2023 P1) 2024-Sep-07 08:25:29 Rec #:90004785 (+COV) Soln.date: 2024-Aug-08_14:27:14 # obs: 638 (2023-2024) IAU76/J2000 helio. ecliptic osc. elements (au, days, deg., period=Julian yrs): EPOCH= 2460195.5 ! 2023-Sep-08.0000000 (TDB) RMSW= n.a. EC= .9961027387711852 QR= .2251517019248526 TP= 2460205.1414172221 OM= 66.83455164961916 W= 116.2979941884782 IN= 132.4764184218047 A= 57.77177579479868 MA= 359.9783592964848 ADIST= 115.3183998876725 PER= 439.11854419827 N= .002244556 ANGMOM= .011532156 DAN= .80443 DDN= .31182 L= 300.6371999 B= 41.3929671 MOID= .0788546 TP= 2023-Sep-17.6414172221 Comet physical (GM= km^3/s^2; RAD= km): GM= n.a. RAD= n.a. M1= 12.2 M2= n.a. k1= 8. k2= n.a. PHCOF= n.a. Comet non-gravitational force model (AMRAT=m^2/kg;A1-A3=au/d^2;DT=days;R0=au): AMRAT= 0. DT= 0. A1= -7.987650632858E-9 A2= -5.951626598835E-10 A3= 0. Standard model: ALN= .1112620426 NK= 4.6142 NM= 2.15 NN= 5.093 R0= 2.808 COMET comments 1: soln ref.= JPL#30, data arc: 2023-01-19 to 2024-05-28 2: k1=8.; ******************************************************************************* ******************************************************************************* Ephemeris / WWW_USER Sat Sep 7 08:25:29 2024 Pasadena, USA / Horizons ******************************************************************************* Target body name: Nishimura (C/2023 P1) {source: JPL#30} Center body name: Solar System Barycenter (0) {source: DE441} Center-site name: BODY CENTER ******************************************************************************* Start time : A.D. 1800-Jan-01 00:00:00.0000 TDB Stop time : A.D. 2200-Jan-01 00:00:00.0000 TDB Step-size : 400 calendar years ******************************************************************************* Center geodetic : 0.0, 0.0, 0.0 {E-lon(deg),Lat(deg),Alt(km)} Center cylindric: 0.0, 0.0, 0.0 {E-lon(deg),Dxy(km),Dz(km)} Center radii : (undefined) Keplerian GM : 2.9630927493968080E-04 au^3/d^2 Small perturbers: Yes {source: SB441-N16} Output units : AU-D, deg, Julian Day Number (Tp) Calendar mode : Mixed Julian/Gregorian Output type : GEOMETRIC osculating elements Output format : 10 Reference frame : Ecliptic of J2000.0 ******************************************************************************* Initial IAU76/J2000 heliocentric ecliptic osculating elements (au, days, deg.): EPOCH= 2460195.5 ! 2023-Sep-08.0000000 (TDB) RMSW= n.a. EC= .9961027387711852 QR= .2251517019248526 TP= 2460205.1414172221 OM= 66.83455164961916 W= 116.2979941884782 IN= 132.4764184218047 Equivalent ICRF heliocentric cartesian coordinates (au, au/d): X= 2.670815309194310E-01 Y= 1.587061328565784E-01 Z= 2.469295791453140E-01 VX=-8.464111805123230E-03 VY=-3.676469244622922E-02 VZ=-7.929564399102655E-03 Comet physical (GM= km^3/s^2; RAD= km): GM= n.a. RAD= n.a. M1= 12.2 M2= n.a. k1= 8. k2= n.a. PHCOF= n.a. Comet non-gravitational force model (AMRAT=m^2/kg;A1-A3=au/d^2;DT=days;R0=au): AMRAT= 0. DT= 0. A1= -7.987650632858E-9 A2= -5.951626598835E-10 A3= 0. Standard model: ALN= .1112620426 NK= 4.6142 NM= 2.15 NN= 5.093 R0= 2.808 ******************************************************************************* JDTDB EC QR IN OM W Tp N MA TA A AD PR ******************************************************************************* $$SOE 2378496.500000000 = A.D. 1800-Jan-01 00:00:00.0000 TDB EC= 9.961216759046099E-01 QR= 2.222364027242872E-01 IN= 1.324277262063761E+02 OM= 6.698108288685958E+01 W = 1.164884450702814E+02 Tp= 2301874.541595932096 N = 2.273728497423130E-03 MA= 1.742175303516989E+02 TA= 1.798722562517102E+02 A = 5.730217415002554E+01 AD= 1.143821118973268E+02 PR= 1.583302493714603E+05 2524593.500000000 = A.D. 2200-Jan-01 00:00:00.0000 TDB EC= 9.958636603193847E-01 QR= 2.267500585804484E-01 IN= 1.325003604389582E+02 OM= 6.659447805937450E+01 W = 1.161208094904082E+02 Tp= 2460205.112044589594 N = 2.429956156990283E-03 MA= 1.564609597509283E+02 TA= 1.794592628793898E+02 A = 5.481901296527875E+01 AD= 1.094112758719771E+02 PR= 1.481508211431650E+05 $$EOE ******************************************************************************* TIME Barycentric Dynamical Time ("TDB" or T_eph) output was requested. This continuous coordinate time is equivalent to the relativistic proper time of a clock at rest in a reference frame co-moving with the solar system barycenter but outside the system's gravity well. It is the independent variable in the solar system relativistic equations of motion. TDB runs at a uniform rate of one SI second per second and is independent of irregularities in Earth's rotation. CALENDAR SYSTEM Mixed calendar mode was active such that calendar dates after AD 1582-Oct-15 (if any) are in the modern Gregorian system. Dates prior to 1582-Oct-5 (if any) are in the Julian calendar system, which is automatically extended for dates prior to its adoption on 45-Jan-1 BC. The Julian calendar is useful for matching historical dates. The Gregorian calendar more accurately corresponds to the Earth's orbital motion and seasons. A "Gregorian-only" calendar mode is available if such physical events are the primary interest. REFERENCE FRAME AND COORDINATES Ecliptic at the standard reference epoch Reference epoch: J2000.0 X-Y plane: adopted Earth orbital plane at the reference epoch Note: IAU76 obliquity of 84381.448 arcseconds wrt ICRF X-Y plane X-axis : ICRF Z-axis : perpendicular to the X-Y plane in the directional (+ or -) sense of Earth's north pole at the reference epoch. Symbol meaning [1 au= 149597870.700 km, 1 day= 86400.0 s]: JDTDB Julian Day Number, Barycentric Dynamical Time EC Eccentricity, e QR Periapsis distance, q (au) IN Inclination w.r.t X-Y plane, i (degrees) OM Longitude of Ascending Node, OMEGA, (degrees) W Argument of Perifocus, w (degrees) Tp Time of periapsis (Julian Day Number) N Mean motion, n (degrees/day) MA Mean anomaly, M (degrees) TA True anomaly, nu (degrees) A Semi-major axis, a (au) AD Apoapsis distance (au) PR Sidereal orbit period (day) ABERRATIONS AND CORRECTIONS Geometric osculating elements have NO corrections or aberrations applied. Computations by ... Solar System Dynamics Group, Horizons On-Line Ephemeris System 4800 Oak Grove Drive, Jet Propulsion Laboratory Pasadena, CA 91109 USA General site: https://ssd.jpl.nasa.gov/ Mailing list: https://ssd.jpl.nasa.gov/email_list.html System news : https://ssd.jpl.nasa.gov/horizons/news.html User Guide : https://ssd.jpl.nasa.gov/horizons/manual.html Connect : browser https://ssd.jpl.nasa.gov/horizons/app.html#/x API https://ssd-api.jpl.nasa.gov/doc/horizons.html command-line telnet ssd.jpl.nasa.gov 6775 e-mail/batch https://ssd.jpl.nasa.gov/ftp/ssd/hrzn_batch.txt scripts https://ssd.jpl.nasa.gov/ftp/ssd/SCRIPTS Author : Jon.D.Giorgini@jpl.nasa.gov ******************************************************************************* !$$SOF COMMAND = '2023 P1' TABLE_TYPE = 'ELEMENTS' START_TIME = '1800-01-01' STOP_TIME = '2200-01-01' STEP_SIZE = '400 years' CENTER = '@0' OUT_UNITS = 'AU-D'